TimeMST,TemperatureF,Dew PointF,Humidity,Sea Level PressureIn,VisibilityMPH,Wind Direction,Wind SpeedMPH,Gust SpeedMPH,PrecipitationIn,Events,Conditions,WindDirDegrees,DateUTC
12:53 AM,-0.9,-8.0,72,30.28,10.0,SW,4.6,-,N/A,,Clear,220,2012-12-10 07:53:00
1:53 AM,-0.0,-7.1,72,30.25,10.0,WSW,5.8,-,N/A,,Clear,240,2012-12-10 08:53:00
2:53 AM,-0.9,-7.1,75,30.21,10.0,SW,8.1,-,N/A,,Clear,220,2012-12-10 09:53:00
3:53 AM,1.0,-5.1,75,30.19,10.0,WSW,9.2,-,N/A,,Clear,240,2012-12-10 10:53:00
4:53 AM,1.9,-5.1,72,30.16,10.0,WSW,6.9,-,N/A,,Clear,240,2012-12-10 11:53:00
5:53 AM,3.2,-4.0,72,29.93,10.0,WSW,6.9,-,N/A,,Clear,240,2012-12-10 12:53:00
6:53 AM,6.1,-0.9,73,30.11,10.0,WSW,9.2,-,N/A,,Clear,250,2012-12-10 13:53:00
7:53 AM,12.0,1.9,64,30.08,10.0,WSW,9.2,-,N/A,,Partly Cloudy,250,2012-12-10 14:53:00
8:53 AM,23.0,6.1,48,30.06,10.0,WSW,12.7,-,N/A,,Overcast,250,2012-12-10 15:53:00
9:53 AM,30.0,5.0,35,30.05,10.0,West,10.4,-,N/A,,Overcast,270,2012-12-10 16:53:00
10:53 AM,35.1,3.0,26,30.02,10.0,West,15.0,23.0,N/A,,Overcast,280,2012-12-10 17:53:00
11:53 AM,39.9,5.0,23,29.98,10.0,NW,21.9,27.6,N/A,,Partly Cloudy,310,2012-12-10 18:53:00
12:53 PM,41.0,6.1,24,29.95,10.0,NW,17.3,24.2,N/A,,Clear,310,2012-12-10 19:53:00
1:53 PM,42.1,8.1,25,29.93,10.0,NW,16.1,21.9,N/A,,Partly Cloudy,310,2012-12-10 20:53:00
2:53 PM,41.0,9.0,27,29.94,10.0,NNW,19.6,-,N/A,,Partly Cloudy,330,2012-12-10 21:53:00
3:53 PM,37.0,9.0,31,29.96,10.0,NW,11.5,-,N/A,,Scattered Clouds,320,2012-12-10 22:53:00
4:53 PM,30.0,9.0,41,29.99,10.0,WNW,5.8,-,N/A,,Clear,300,2012-12-10 23:53:00
5:53 PM,28.9,10.0,45,30.01,10.0,NW,8.1,-,N/A,,Clear,310,2012-12-11 00:53:00
6:53 PM,28.0,9.0,45,30.04,10.0,NW,8.1,-,N/A,,Partly Cloudy,310,2012-12-11 01:53:00
7:53 PM,28.0,10.9,49,30.04,10.0,NW,8.1,-,N/A,,Clear,320,2012-12-11 02:53:00
8:53 PM,28.9,15.1,56,30.03,10.0,NW,10.4,-,N/A,,Scattered Clouds,320,2012-12-11 03:53:00
9:53 PM,28.0,15.1,58,30.03,10.0,NW,8.1,-,N/A,,Mostly Cloudy,310,2012-12-11 04:53:00
10:53 PM,28.0,16.0,61,30.03,10.0,NW,8.1,-,N/A,,Partly Cloudy,320,2012-12-11 05:53:00
11:53 PM,24.1,14.0,65,30.04,10.0,WNW,9.2,-,N/A,,Scattered Clouds,300,2012-12-11 06:53:00